Simultaneous Nadir Overpasses (SNOs) Predictions

Prediction of SNOs between FY3D and TERRA Satellite Orbit:

Table of predicted SNOs for the next 14.0 days since TLE Epoch: 10/22/2022
Index Date (FY3D) Time (FY3D) Lat,Lon (FY3D) SZA (FY3D ) Date (TERRA) Time (TERRA) Lat,Lon (TERRA) SZA (TERRA ) Distance(km) Time Diff (sec)
1 10/23/2022 14:35:20 72.27, -39.09 83.74 10/23/2022 14:36:12 72.26, -39.17 83.73 2.94 52
2 10/23/2022 15:26:03 -72.19, 128.38 96.33 10/23/2022 15:25:37 -72.22, 128.42 96.30 3.37 26
3 10/26/2022 03:30:03 72.29, 127.23 84.64 10/26/2022 03:30:27 72.26, 127.24 84.61 3.45 24
4 10/26/2022 04:20:45 -72.16, -65.21 95.48 10/26/2022 04:19:53 -72.17, -65.26 95.47 2.00 52
5 10/28/2022 15:34:06 -72.60, 125.63 94.22 10/28/2022 15:35:17 -72.49, 126.42 94.31 29.37 71
6 10/28/2022 16:24:46 72.26, -66.37 85.47 10/28/2022 16:24:43 72.24, -66.37 85.44 2.35 3
7 10/28/2022 17:15:24 -71.93, 101.58 94.84 10/28/2022 17:14:12 -72.00, 100.86 94.80 26.07 72
8 10/31/2022 04:28:44 -72.33, -67.47 93.65 10/31/2022 04:29:36 -72.30, -67.50 93.67 3.40 52
9 10/31/2022 05:19:29 72.23, 100.02 86.28 10/31/2022 05:18:58 72.25, 100.08 86.30 2.90 31
10 11/02/2022 17:23:27 -72.31, 98.91 92.85 11/02/2022 17:23:51 -72.31, 98.93 92.85 1.06 24
11 11/02/2022 18:14:12 72.22, -93.60 87.08 11/02/2022 18:13:14 72.20, -93.60 87.05 1.75 58



Historial Predications of SNOs between FY3D and TERRA
